Regional Weather Roundup
Issued by NWS Northern Indiana

Home | Current Version | Previous Version | Graphics & Text | Print | Product List | Glossary On
Versions: 1 2 3 4 5 6 7 8 9 10 11 12 13 14 15 16 17 18 19 20 21 22 23 24 25 26 27 28 29 30 31 32 33 34 35 36 37 38 39 40 41 42 43 44 45 46 47 48 49 50
000
ASUS43 KIWX 200310
RWRIWX

KIWX WEATHER ROUNDUP
NATIONAL WEATHER SERVICE NORTHERN INDIANA
1100 PM EDT FRI SEP 19 2014

NOTE: "FAIR" INDICATES FEW OR NO CLOUDS BELOW 12,000 FEET WITH NO
SIGNIFICANT WEATHER AND/OR OBSTRUCTIONS TO VISIBILITY.

* THESE STATIONS ARE NOT UNDER NWS QUALITY CONTROL. THEY ALSO MAY NOT
  REPORT WEATHER SUCH AS PRECIPITATION OR FOG.

INZ001>027-200400-
NORTHERN INDIANA

CITY           SKY/WX    TMP DP  RH WIND       PRES   REMARKS
GARY*          CLEAR     63  49  60 S8        30.01F
VALPARAISO     PTCLDY    58  47  66 S5        30.04R
MICHIGAN CITY* PTCLDY    59  45  58 S6        30.03S
LAPORTE*       PTCLDY    57  47  69 S3        30.04S
KNOX*          PTCLDY    56  48  74 S5        30.03S
SOUTH BEND     PTCLDY    60  48  64 S7        30.04R
GOSHEN         PTCLDY    59  49  69 S7        30.05S
MONTICELLO*    CLEAR     56  50  81 CALM      30.05S
LOGANSPORT*    CLEAR     52  45  76 S5        30.06F
ROCHESTER*     PTCLDY    61  50  67 S3        30.06S
WARSAW*        CLEAR     52  48  87 CALM      30.06S
ANGOLA*        CLEAR     54  48  82 CALM      30.07S
FORT WAYNE     PTCLDY    53  48  83 S5        30.08S
HUNTINGTON*    CLEAR     53  50  90 CALM      30.07S
PERU/GRISSOM   PTCLDY    56  51  83 S7        30.06S
MARION*        PTCLDY    53  48  83 S3        30.08S

$$
INZ028>050-200400-
CENTRAL INDIANA

CITY           SKY/WX    TMP DP  RH WIND       PRES   REMARKS
LAFAYETTE      CLEAR     54  50  86 CALM      30.06R
KOKOMO*        PTCLDY    54  46  76 S5        30.07S
MUNCIE*        CLEAR     59  49  69 S5        30.08F
INDIANAPOLIS   PTCLDY    62  51  67 SE5       30.07S

$$
MIZ043>046-050>051-056>058-064>065-071>073-077>080-200400-
SOUTHWEST LOWER MICHIGAN

CITY           SKY/WX    TMP DP  RH WIND       PRES   REMARKS
BATTLE CREEK   CLEAR     59  48  67 S12       30.04F
BENTON HARBOR  PTCLDY    57  49  74 SE7       30.01S
COLDWATER*     PTCLDY    55  49  78 SE5       30.06S
HILLSDALE*     PTCLDY    53  51  95 CALM      30.07S
HOLLAND        PTCLDY    60  50  69 S10       29.99F
GRAND RAPIDS   MOCLDY    61  51  70 S12       30.00F
KALAMAZOO      PTCLDY    60  48  64 S9        30.04S
STURGIS*       CLEAR     57  48  72 S6        30.05S
THREE RIVERS*  FAIR      57  49  74 S6        30.04F

$$
OHZ001>008-015>018-024>025-200400-
NORTHWEST OHIO

CITY           SKY/WX    TMP DP  RH WIND       PRES   REMARKS
WAUSEON*       FAIR      50  48  93 S5        30.07F
DEFIANCE       CLEAR     54  47  77 S3        30.08S
FINDLAY        CLEAR     54  47  77 S3        30.08R
TOLEDO EXPRESS CLEAR     54  52  93 CALM      30.07F
TOLEDO METCALF CLEAR     54  49  83 SE3       30.08F
LIMA           CLEAR     58  47  66 S5        30.09R

$$
&&


USA.gov is the U.S. government's official web portal to all federal, state and local government web resources and services.